WA6MHA-15 Weather Reports


Display with metric or nautical units.
time (UTC)temp
F
wind
direction
speed
MPH
gust
MPH
rain 1hr
in
rain 24hr
in
rain mn
in
humidity
%
barometer
mb
20191015050233 56 64 0.0 0.0 0.00 0.00 0.00 96
20191015050135 56 64 0.0 0.0 0.00 0.00 0.00 96
20191015045820 56 64 0.0 0.0 0.00 0.00 0.00 96
20191015045733 56 64 0.0 0.0 0.00 0.00 0.00 96
20191015045427 57 64 0.0 0.0 0.00 0.00 0.00 96
20191015045331 57 64 0.0 0.0 0.00 0.00 0.00 96
20191015045029 57 64 0.0 0.0 0.00 0.00 0.00 96
20191015044929 57 64 0.0 0.0 0.00 0.00 0.00 96
20191015044126 56 64 0.0 0.0 0.00 0.00 0.00 96
20191015043725 57 64 0.0 0.0 0.00 0.00 0.00 96
20191015043322 57 64 0.0 0.0 0.00 0.00 0.00 96
20191015042955 57 64 0.0 0.0 0.00 0.00 0.00 96
20191015042921 57 64 0.0 0.0 0.00 0.00 0.00 96
20191015042553 56 64 0.0 0.0 0.00 0.00 0.00 96
20191015042519 56 64 0.0 0.0 0.00 0.00 0.00 96
20191015041821 57 64 0.0 0.0 0.00 0.00 0.00 96
20191015041716 57 64 0.0 0.0 0.00 0.00 0.00 96
20191015041350 57 64 0.0 0.0 0.00 0.00 0.00 96
20191015041313 57 64 0.0 0.0 0.00 0.00 0.00 96
20191015040945 57 64 0.0 0.0 0.00 0.00 0.00 96
20191015040911 57 64 0.0 0.0 0.00 0.00 0.00 96
20191015040559 57 64 0.0 0.0 0.00 0.00 0.00 96
20191015040510 57 64 0.0 0.0 0.00 0.00 0.00 96
20191015040229 57 64 0.0 0.0 0.00 0.00 0.00 96
20191015040108 57 64 0.0 0.0 0.00 0.00 0.00 96
20191015035304 57 64 0.0 0.0 0.00 0.00 0.00 95
20191015034501 57 64 0.0 0.0 0.00 0.00 0.00 95
20191015034148 57 64 0.0 0.0 0.00 0.00 0.00 95
20191015034059 57 64 0.0 0.0 0.00 0.00 0.00 95
20191015033334 57 64 0.0 0.0 0.00 0.00 0.00 95
20191015033256 57 64 0.0 0.0 0.00 0.00 0.00 95
20191015032536 57 64 0.0 0.0 0.00 0.00 0.00 95
20191015032452 57 64 0.0 0.0 0.00 0.00 0.00 95
20191015032136 58 64 0.0 0.0 0.00 0.00 0.00 95
20191015032051 58 64 0.0 0.0 0.00 0.00 0.00 95
20191015031722 58 64 0.0 0.0 0.00 0.00 0.00 95
20191015031649 58 64 0.0 0.0 0.00 0.00 0.00 95
20191015031403 58 64 0.0 0.0 0.00 0.00 0.00 95
20191015031328 58 64 0.0 0.0 0.00 0.00 0.00 95
20191015031246 58 64 0.0 0.0 0.00 0.00 0.00 95
20191015030932 58 64 0.0 0.0 0.00 0.00 0.00 95
20191015030845 58 64 0.0 0.0 0.00 0.00 0.00 95
20191015030044 58 64 0.0 0.0 0.00 0.00 0.00 94
20191015025639 58 64 0.0 0.0 0.00 0.00 0.00 93
20191015025331 58 64 0.0 0.0 0.00 0.00 0.00 92
20191015025238 58 64 0.0 0.0 0.00 0.00 0.00 92
20191015024836 59 64 0.0 0.0 0.00 0.00 0.00 92
20191015024519 58 64 0.0 0.0 0.00 0.00 0.00 91
20191015024434 58 64 0.0 0.0 0.00 0.00 0.00 91
20191015023715 59 64 0.0 0.0 0.00 0.00 0.00 91
20191015023631 59 64 0.0 0.0 0.00 0.00 0.00 91
20191015023230 59 64 0.0 0.0 0.00 0.00 0.00 90
20191015022425 60 64 0.0 0.0 0.00 0.00 0.00 89
20191015022105 60 64 0.0 1.0 0.00 0.00 0.00 89
20191015022024 60 64 0.0 1.0 0.00 0.00 0.00 89
20191015021724 60 45 0.0 0.0 0.00 0.00 0.00 88
20191015021623 60 45 0.0 0.0 0.00 0.00 0.00 88
20191015020819 61 267 0.0 0.0 0.00 0.00 0.00 86
20191015015211 63 267 0.0 0.0 0.00 0.00 0.00 84
20191015014916 63 267 0.0 0.0 0.00 0.00 0.00 85
20191015014811 63 267 0.0 0.0 0.00 0.00 0.00 85
20191015014409 64 267 0.0 0.0 0.00 0.00 0.00 85
20191015013713 64 267 0.0 3.0 0.00 0.00 0.00 84
20191015013106 64 56 0.0 3.0 0.00 0.00 0.00 83
20191015012549 64 322 0.0 4.0 0.00 0.00 0.00 82
20191015012501 64 322 0.0 4.0 0.00 0.00 0.00 82
20191015012157 65 322 0.0 6.0 0.00 0.00 0.00 82
20191015011628 65 251 0.0 3.0 0.00 0.00 0.00 81
20191015011551 65 251 0.0 3.0 0.00 0.00 0.00 81
20191015010947 65 254 0.0 3.0 0.00 0.00 0.00 89
20191015010449 65 163 0.0 4.0 0.00 0.00 0.00 89
20191015010342 65 163 0.0 4.0 0.00 0.00 0.00 89
20191015010134 66 163 1.0 3.0 0.00 0.00 0.00 88
20191015010036 66 163 1.0 3.0 0.00 0.00 0.00 88
20191015005735 67 208 0.0 4.0 0.00 0.00 0.00 88
20191015005520 67 217 1.0 4.0 0.00 0.00 0.00 88
20191015005431 67 217 1.0 4.0 0.00 0.00 0.00 88
20191015005229 67 289 0.0 3.0 0.00 0.00 0.00 88
20191015005128 67 289 0.0 3.0 0.00 0.00 0.00 88
20191015004908 67 260 1.0 3.0 0.00 0.00 0.00 88
20191015004825 67 260 1.0 3.0 0.00 0.00 0.00 88
20191015004219 67 163 0.0 7.0 0.00 0.00 0.00 87
20191015003950 68 319 0.0 7.0 0.00 0.00 0.00 87
20191015003918 68 319 0.0 7.0 0.00 0.00 0.00 87
20191015003614 68 232 0.0 8.0 0.00 0.00 0.00 86
20191015003312 68 275 4.0 7.0 0.00 0.00 0.00 86
20191015003056 69 281 7.0 7.0 0.00 0.00 0.00 85
20191015003008 69 281 7.0 7.0 0.00 0.00 0.00 85
20191015002759 69 171 3.0 4.0 0.00 0.00 0.00 85
20191015002705 69 171 3.0 4.0 0.00 0.00 0.00 85
20191015002459 69 323 3.0 4.0 0.00 0.00 0.00 84
20191015002403 69 323 3.0 4.0 0.00 0.00 0.00 84
20191015001457 69 226 0.0 6.0 0.00 0.00 0.00 83
20191015000248 69 213 3.0 7.0 0.00 0.00 0.00 82
20191014234736 70 319 1.0 9.0 0.00 0.00 0.00 81
20191014234214 70 331 0.0 10.0 0.00 0.00 0.00 81
20191014234132 70 331 0.0 10.0 0.00 0.00 0.00 81
20191014233917 70 227 1.0 10.0 0.00 0.00 0.00 81
20191014233830 70 227 1.0 10.0 0.00 0.00 0.00 81
20191014233613 70 277 5.0 9.0 0.00 0.00 0.00 80
20191014233528 70 277 5.0 9.0 0.00 0.00 0.00 80
20191014233259 70 322 6.0 9.0 0.00 0.00 0.00 80
20191014233226 70 322 6.0 9.0 0.00 0.00 0.00 80
20191014232923 71 182 3.0 9.0 0.00 0.00 0.00 79
20191014232703 71 315 0.0 8.0 0.00 0.00 0.00 79
20191014232620 71 315 0.0 8.0 0.00 0.00 0.00 79
20191014232355 72 240 2.0 6.0 0.00 0.00 0.00 78
20191014232317 72 240 2.0 6.0 0.00 0.00 0.00 78
20191014232055 72 172 0.0 6.0 0.00 0.00 0.00 79
20191014232016 72 172 0.0 6.0 0.00 0.00 0.00 79
20191014231746 72 213 6.0 8.0 0.00 0.00 0.00 79
20191014231713 72 213 6.0 8.0 0.00 0.00 0.00 79
20191014231410 73 243 0.0 8.0 0.00 0.00 0.00 78
20191014231144 72 247 4.0 8.0 0.00 0.00 0.00 77
20191014231109 72 247 4.0 8.0 0.00 0.00 0.00 77
20191014230805 72 202 1.0 8.0 0.00 0.00 0.00 76
20191014230603 72 241 3.0 8.0 0.00 0.00 0.00 76
20191014230502 72 241 3.0 8.0 0.00 0.00 0.00 76
20191014230238 72 127 7.0 11.0 0.00 0.00 0.00 76
20191014230200 72 127 7.0 11.0 0.00 0.00 0.00 76
20191014225859 73 33 2.0 11.0 0.00 0.00 0.00 76
20191014225558 73 4 4.0 9.0 0.00 0.00 0.00 76
20191014225338 73 255 2.0 10.0 0.00 0.00 0.00 76
20191014225253 73 255 2.0 10.0 0.00 0.00 0.00 76
20191014224951 73 306 3.0 10.0 0.00 0.00 0.00 76
20191014224743 73 205 1.0 10.0 0.00 0.00 0.00 75
20191014224649 73 205 1.0 10.0 0.00 0.00 0.00 75
20191014224430 73 272 5.0 10.0 0.00 0.00 0.00 75
20191014224347 73 272 5.0 10.0 0.00 0.00 0.00 75
20191014223440 72 15 4.0 9.0 0.00 0.00 0.00 78
20191014222917 73 161 4.0 8.0 0.00 0.00 0.00 80
20191014222834 73 161 4.0 8.0 0.00 0.00 0.00 80
20191014222532 73 206 7.0 8.0 0.00 0.00 0.00 78
20191014222308 73 284 2.0 12.0 0.00 0.00 0.00 78
20191014222230 73 284 2.0 12.0 0.00 0.00 0.00 78
20191014222009 73 292 6.0 12.0 0.00 0.00 0.00 77
20191014221927 73 292 6.0 12.0 0.00 0.00 0.00 77
20191014221359 74 153 0.0 8.0 0.00 0.00 0.00 76
20191014221324 74 153 0.0 8.0 0.00 0.00 0.00 76
20191014221022 74 257 4.0 9.0 0.00 0.00 0.00 73
20191014220802 74 307 3.0 8.0 0.00 0.00 0.00 70
20191014220720 74 307 3.0 8.0 0.00 0.00 0.00 70
20191014220116 75 327 2.0 9.0 0.00 0.00 0.00 70
20191014215812 74 306 7.0 8.0 0.00 0.00 0.00 71
20191014215552 75 264 0.0 8.0 0.00 0.00 0.00 73
20191014215510 75 264 0.0 8.0 0.00 0.00 0.00 73
20191014215208 74 265 2.0 10.0 0.00 0.00 0.00 72
20191014214333 74 277 4.0 9.0 0.00 0.00 0.00 73
20191014214300 74 277 4.0 9.0 0.00 0.00 0.00 73
20191014214034 74 313 7.0 9.0 0.00 0.00 0.00 72
20191014213959 74 313 7.0 9.0 0.00 0.00 0.00 72
20191014213439 74 282 3.0 11.0 0.00 0.00 0.00 70
20191014213407 75 165 0.0 8.0 0.00 0.00 0.00 70
20191014213333 73 153 4.0 10.0 0.00 0.00 0.00 69
20191014213259 75 165 0.0 8.0 0.00 0.00 0.00 70
20191014213221 75 165 0.0 8.0 0.00 0.00 0.00 70
20191014213146 74 282 3.0 11.0 0.00 0.00 0.00 70
20191014213111 74 194 0.0 8.0 0.00 0.00 0.00 69
20191014213050 75 165 0.0 8.0 0.00 0.00 0.00 70
20191014213030 74 282 3.0 11.0 0.00 0.00 0.00 70
20191014212930 74 194 0.0 8.0 0.00 0.00 0.00 69
20191014212858 73 153 4.0 10.0 0.00 0.00 0.00 69
20191014212823 73 317 5.0 6.0 0.00 0.00 0.00 71
20191014212746 73 317 5.0 6.0 0.00 0.00 0.00 71
20191014212707 74 282 3.0 11.0 0.00 0.00 0.00 70
20191014212625 74 282 3.0 11.0 0.00 0.00 0.00 70
20191014212540 73 153 4.0 10.0 0.00 0.00 0.00 69
20191014212451 73 153 4.0 10.0 0.00 0.00 0.00 69
20191014212446 74 282 3.0 11.0 0.00 0.00 0.00 70
20191014212401 74 194 0.0 8.0 0.00 0.00 0.00 69
20191014212307 74 194 0.0 8.0 0.00 0.00 0.00 69
20191014212211 74 194 0.0 8.0 0.00 0.00 0.00 69
20191014212112 73 317 5.0 6.0 0.00 0.00 0.00 71
20191014212041 73 153 4.0 10.0 0.00 0.00 0.00 69
20191014212010 73 153 4.0 10.0 0.00 0.00 0.00 69
20191014211937 74 194 0.0 8.0 0.00 0.00 0.00 69
20191014211903 73 317 5.0 6.0 0.00 0.00 0.00 71
20191014211839 74 194 0.0 8.0 0.00 0.00 0.00 69
20191014211827 73 153 4.0 10.0 0.00 0.00 0.00 69
20191014211750 73 317 5.0 6.0 0.00 0.00 0.00 71
20191014211710 73 317 5.0 6.0 0.00 0.00 0.00 71
20191014211631 73 317 5.0 6.0 0.00 0.00 0.00 71
20191014211550 73 317 5.0 6.0 0.00 0.00 0.00 71
20191014211539 73 274 3.0 7.0 0.00 0.00 0.00 71
20191014211510 73 317 5.0 6.0 0.00 0.00 0.00 71
20191014211427 73 317 5.0 6.0 0.00 0.00 0.00 71
20191014211343 73 153 4.0 10.0 0.00 0.00 0.00 69
20191014211258 73 153 4.0 10.0 0.00 0.00 0.00 69
20191014211237 73 317 5.0 6.0 0.00 0.00 0.00 71
20191014211211 73 153 4.0 10.0 0.00 0.00 0.00 69
20191014211123 73 153 4.0 10.0 0.00 0.00 0.00 69
20191014211035 73 153 4.0 10.0 0.00 0.00 0.00 69
20191014210944 73 153 4.0 10.0 0.00 0.00 0.00 69
20191014210854 73 153 4.0 10.0 0.00 0.00 0.00 69
20191014210801 73 153 4.0 10.0 0.00 0.00 0.00 69
20191014210631 73 153 4.0 10.0 0.00 0.00 0.00 69
20191014210027 73 334 6.0 8.0 0.00 0.00 0.00 71
20191014205723 73 205 6.0 10.0 0.00 0.00 0.00 69
20191014205118 73 302 6.0 11.0 0.00 0.00 0.00 70
20191014204817 73 300 6.0 8.0 0.00 0.00 0.00 70
20191014204514 73 326 0.0 8.0 0.00 0.00 0.00 71
20191014204211 73 233 4.0 10.0 0.00 0.00 0.00 70
20191014203608 73 181 4.0 9.0 0.00 0.00 0.00
20191014203306 72 149 3.0 7.0 0.00 0.00 0.00 70
20191014202700 72 313 2.0 5.0 0.00 0.00 0.00 70
20191014202358 72 136 3.0 5.0 0.00 0.00 0.00 70
20191014201754 72 268 5.0 9.0 0.00 0.00 0.00 71
20191014201148 71 230 4.0 6.0 0.00 0.00 0.00 71
20191014200844 70 322 3.0 6.0 0.00 0.00 0.00 73
20191014200542 70 285 6.0 7.0 0.00 0.00 0.00 74
20191014200241 71 316 0.0 8.0 0.00 0.00 0.00 75
20191014195937 70 248 2.0 8.0 0.00 0.00 0.00 75
20191014195637 70 98 0.0 16.0 0.00 0.00 0.00 74
20191014195031 70 319 4.0 6.0 0.00 0.00 0.00 74
20191014194427 70 275 0.0 7.0 0.00 0.00 0.00 75
20191014194123 70 275 0.0 8.0 0.00 0.00 0.00 74
20191014193822 70 213 7.0 7.0 0.00 0.00 0.00 73
20191014193217 70 136 3.0 10.0 0.00 0.00 0.00 74
20191014192913 70 135 4.0 10.0 0.00 0.00 0.00 73
20191014192611 70 303 5.0 11.0 0.00 0.00 0.00 73
20191014192006 69 313 5.0 6.0 0.00 0.00 0.00 75
20191014191402 69 288 2.0 9.0 0.00 0.00 0.00 75
20191014191058 69 316 1.0 10.0 0.00 0.00 0.00 75
20191014190756 72 247 5.0 8.0 0.00 0.00 0.00 74
20191014190452 70 262 8.0 8.0 0.00 0.00 0.00 74
20191014190152 69 292 7.0 9.0 0.00 0.00 0.00 74
20191014185850 69 101 0.0 9.0 0.00 0.00 0.00 75
20191014185546 69 282 5.0 8.0 0.00 0.00 0.00 75
20191014184941 69 203 1.0 6.0 0.00 0.00 0.00 77
20191014184640 69 319 0.0 7.0 0.00 0.00 0.00 78
20191014184335 69 288 3.0 7.0 0.00 0.00 0.00 78
20191014183428 69 303 4.0 8.0 0.00 0.00 0.00 78
20191014183127 69 296 1.0 7.0 0.00 0.00 0.00 79
20191014182825 69 15 5.0 7.0 0.00 0.00 0.00 65
20191014182521 69 285 1.0 4.0 0.00 0.00 0.00 68
20191014181914 68 217 0.0 9.0 0.00 0.00 0.00 69
20191014181614 68 309 2.0 7.0 0.00 0.00 0.00 69
20191014181310 68 298 5.0 6.0 0.00 0.00 0.00 70
20191014181008 68 310 1.0 6.0 0.00 0.00 0.00 70
20191014180703 67 223 0.0 6.0 0.00 0.00 0.00 72
20191014180401 67 323 2.0 6.0 0.00 0.00 0.00 72
20191014175756 67 174 2.0 3.0 0.00 0.00 0.00 73
20191014175452 67 222 4.0 3.0 0.00 0.00 0.00 74
20191014175149 66 217 0.0 8.0 0.00 0.00 0.00 74
20191014174847 66 246 1.0 8.0 0.00 0.00 0.00 73
20191014174543 67 300 3.0 8.0 0.00 0.00 0.00 73
20191014174241 66 306 5.0 6.0 0.00 0.00 0.00 73
20191014173938 66 254 2.0 6.0 0.00 0.00 0.00 75
20191014173030 65 240 3.0 3.0 0.00 0.00 0.00 77
20191014172726 64 45 0.0 5.0 0.00 0.00 0.00 77
20191014172423 64 258 0.0 5.0 0.00 0.00 0.00 78
20191014171817 63 293 0.0 2.0 0.00 0.00 0.00 80
20191014171516 63 216 0.0 2.0 0.00 0.00 0.00 80
20191014171212 63 239 0.0 0.0 0.00 0.00 0.00 81
20191014170607 63 239 0.0 0.0 0.00 0.00 0.00 81
20191014170303 63 239 0.0 4.0 0.00 0.00 0.00 81
20191014170000 63 239 0.0 4.0 0.00 0.00 0.00 80
20191014165505 62 286 3.0 4.0 0.00 0.00 0.00 82
20191014165434 60 136 0.0 6.0 0.00 0.00 0.00 87
20191014165405 62 286 3.0 4.0 0.00 0.00 0.00 82
20191014165354 64 282 3.0 7.0 0.00 0.00 0.00 78
20191014165334 62 286 3.0 4.0 0.00 0.00 0.00 82
20191014165300 62 286 3.0 4.0 0.00 0.00 0.00 82
20191014165259 59 54 0.0 7.0 0.00 0.00 0.00 88
20191014165224 62 286 3.0 4.0 0.00 0.00 0.00 82
20191014165150 62 286 3.0 4.0 0.00 0.00 0.00 82
20191014165119 61 271 4.0 5.0 0.00 0.00 0.00 86
20191014165041 61 271 4.0 5.0 0.00 0.00 0.00 86
20191014164959 62 286 3.0 4.0 0.00 0.00 0.00 82
20191014164926 62 286 3.0 4.0 0.00 0.00 0.00 82
20191014164849 62 286 3.0 4.0 0.00 0.00 0.00 82
20191014164811 62 286 3.0 4.0 0.00 0.00 0.00 82
20191014164749 64 289 4.0 4.0 0.00 0.00 0.00 80
20191014164726 59 54 0.0 7.0 0.00 0.00 0.00 88
20191014164637 61 271 4.0 5.0 0.00 0.00 0.00 86
20191014164543 61 271 4.0 5.0 0.00 0.00 0.00 86
20191014164512 61 271 4.0 5.0 0.00 0.00 0.00 86
20191014164446 62 286 3.0 4.0 0.00 0.00 0.00 82
20191014164440 59 54 0.0 7.0 0.00 0.00 0.00 88
20191014164409 61 271 4.0 5.0 0.00 0.00 0.00 86
20191014164336 60 136 0.0 6.0 0.00 0.00 0.00 87
20191014164301 61 271 4.0 5.0 0.00 0.00 0.00 86
20191014164221 61 271 4.0 5.0 0.00 0.00 0.00 86
20191014164141 60 136 0.0 6.0 0.00 0.00 0.00 87
20191014164058 61 271 4.0 5.0 0.00 0.00 0.00 86
20191014164013 61 271 4.0 5.0 0.00 0.00 0.00 86
20191014163926 61 271 4.0 5.0 0.00 0.00 0.00 86
20191014163840 62 302 1.0 5.0 0.00 0.00 0.00 85
20191014163837 61 271 4.0 5.0 0.00 0.00 0.00 86
20191014163745 59 54 0.0 7.0 0.00 0.00 0.00 88
20191014163650 61 271 4.0 5.0 0.00 0.00 0.00 86
20191014163553 60 136 0.0 6.0 0.00 0.00 0.00 87
20191014163538 61 271 4.0 5.0 0.00 0.00 0.00 86
20191014163453 59 54 0.0 7.0 0.00 0.00 0.00 88
20191014163351 59 54 0.0 7.0 0.00 0.00 0.00 88
20191014163247 60 136 0.0 6.0 0.00 0.00 0.00 87
20191014163235 61 313 1.0 5.0 0.00 0.00 0.00 86
20191014163139 60 136 0.0 6.0 0.00 0.00 0.00 87
20191014163029 59 54 0.0 7.0 0.00 0.00 0.00 88
20191014162917 60 136 0.0 6.0 0.00 0.00 0.00 87
20191014162759 59 54 0.0 7.0 0.00 0.00 0.00 88
20191014162638 59 54 0.0 7.0 0.00 0.00 0.00 88
20191014162513 60 136 0.0 6.0 0.00 0.00 0.00 87
20191014162344 59 54 0.0 7.0 0.00 0.00 0.00 88
20191014162326 60 136 0.0 6.0 0.00 0.00 0.00 87
20191014162212 59 54 0.0 7.0 0.00 0.00 0.00 88
20191014162023 59 54 0.0 7.0 0.00 0.00 0.00 88
20191014161114 59 312 1.0 4.0 0.00 0.00 0.00 91
20191014160812 59 354 4.0 5.0 0.00 0.00 0.00 91
20191014155600 59 310 1.0 3.0 0.00 0.00 0.00 92
20191014155257 59 80 0.0 5.0 0.00 0.00 0.00 94
20191014154954 58 26 0.0 5.0 0.00 0.00 0.00 94
20191014154651 58 99 3.0 2.0 0.00 0.00 0.00 94
20191014154350 58 82 0.0 2.0 0.00 0.00 0.00 99
20191014154046 57 123 2.0 4.0 0.00 0.00 0.00 99
20191014153440 57 109 3.0 3.0 0.00 0.00 0.00 100
20191014153137 57 56 0.0 5.0 0.00 0.00 0.00 100
20191014152532 56 77 2.0 3.0 0.00 0.00 0.00 100
20191014152228 56 63 2.0 2.0 0.00 0.00 0.00 100
20191014151926 56 33 0.0 2.0 0.00 0.00 0.00 100
20191014151624 55 46 0.0 0.0 0.00 0.00 0.00 100
20191014151320 54 66 0.0 0.0 0.00 0.00 0.00 100
20191014150714 54 66 0.0 0.0 0.00 0.00 0.00 100
20191014150411 54 66 0.0 0.0 0.00 0.00 0.00 100
20191014150110 53 66 0.0 0.0 0.00 0.00 0.00 100
20191014145649 53 66 0.0 0.0 0.00 0.00 0.00 100
20191014145503 53 66 0.0 0.0 0.00 0.00 0.00 100
20191014145200 53 66 0.0 0.0 0.00 0.00 0.00 100
20191014144857 53 66 0.0 0.0 0.00 0.00 0.00 100
20191014144554 53 66 0.0 0.0 0.00 0.00 0.00 100
20191014144252 53 66 0.0 0.0 0.00 0.00 0.00 100
20191014143949 53 66 0.0 0.0 0.00 0.00 0.00 100
20191014143040 53 99 0.0 2.0 0.00 0.00 0.00 100
20191014142435 52 92 1.0 0.0 0.00 0.00 0.00 100
20191014142131 52 75 0.0 0.0 0.00 0.00 0.00 100
20191014141527 52 75 0.0 3.0 0.00 0.00 0.00 100
20191014141223 52 75 0.0 3.0 0.00 0.00 0.00 100
20191014140920 52 75 0.0 3.0 0.00 0.00 0.00 100
20191014140314 52 113 2.0 4.0 0.00 0.00 0.00 100
20191014140013 52 111 2.0 4.0 0.00 0.00 0.00 100
20191014135709 52 70 3.0 0.0 0.00 0.00 0.00 100
20191014135406 52 88 0.0 0.0 0.00 0.00 0.00 100
20191014134909 51 88 0.0 0.0 0.00 0.00 0.00 100
20191014134106 52 88 0.0 0.0 0.00 0.00 0.00 100
20191014133303 51 88 0.0 2.0 0.00 0.00 0.00 100
20191014132901 51 66 0.0 2.0 0.00 0.00 0.00 100
20191014132459 51 68 0.0 0.0 0.00 0.00 0.00 100
20191014132130 51 90 0.0 0.0 0.00 0.00 0.00 100
20191014132057 51 90 0.0 0.0 0.00 0.00 0.00 100
20191014131655 51 90 0.0 0.0 0.00 0.00 0.00 100
20191014131253 51 90 0.0 0.0 0.00 0.00 0.00 100
20191014130852 51 90 0.0 0.0 0.00 0.00 0.00 100
20191014130450 51 90 0.0 0.0 0.00 0.00 0.00 100
20191014130048 52 90 0.0 0.0 0.00 0.00 0.00 100
20191014125245 52 90 0.0 0.0 0.00 0.00 0.00 100
20191014124843 53 90 0.0 0.0 0.00 0.00 0.00 100
20191014124441 52 90 0.0 0.0 0.00 0.00 0.00 100
20191014124040 53 90 0.0 2.0 0.00 0.00 0.00 100
20191014123309 54 112 2.0 3.0 0.00 0.00 0.00 100
20191014123235 54 112 2.0 3.0 0.00 0.00 0.00 100
20191014122432 55 59 0.0 4.0 0.00 0.00 0.00 100
20191014122030 55 37 3.0 5.0 0.00 0.00 0.00 100
20191014121629 55 42 4.0 5.0 0.00 0.00 0.00 100
20191014121307 55 43 3.0 5.0 0.00 0.00 0.00 100
20191014121227 55 43 3.0 5.0 0.00 0.00 0.00 100
20191014120825 56 47 3.0 5.0 0.00 0.00 0.00 100
20191014120423 55 52 3.0 4.0 0.00 0.00 0.00 100
20191014120021 56 80 2.0 2.0 0.00 0.00 0.00 100
20191014115653 56 63 0.0 5.0 0.00 0.00 0.00 100
20191014115620 56 63 0.0 5.0 0.00 0.00 0.00 100
20191014114818 57 56 0.0 3.0 0.00 0.00 0.00 100
20191014114014 57 32 0.0 3.0 0.00 0.00 0.00 100
20191014113611 57 91 1.0 4.0 0.00 0.00 0.00 100
20191014113209 57 50 1.0 4.0 0.00 0.00 0.00 100
20191014112840 56 70 3.0 0.0 0.00 0.00 0.00 100
20191014112807 56 70 3.0 0.0 0.00 0.00 0.00 100
20191014112406 56 7 0.0 0.0 0.00 0.00 0.00 100
20191014112004 56 7 0.0 0.0 0.00 0.00 0.00 100
20191014111200 56 7 0.0 3.0 0.00 0.00 0.00 100
20191014110758 56 45 1.0 3.0 0.00 0.00 0.00 100
20191014110356 56 35 2.0 3.0 0.00 0.00 0.00 100
20191014105955 55 61 0.0 4.0 0.00 0.00 0.00 100
20191014105640 54 63 2.0 3.0 0.00 0.00 0.00 100
20191014105553 54 63 2.0 3.0 0.00 0.00 0.00 100
20191014105153 54 75 0.0 0.0 0.00 0.00 0.00 100
20191014104749 54 75 0.0 0.0 0.00 0.00 0.00 100
20191014104348 54 75 0.0 0.0 0.00 0.00 0.00 100
20191014104034 54 75 0.0 0.0 0.00 0.00 0.00 100
20191014103946 54 75 0.0 0.0 0.00 0.00 0.00 100
20191014103142 54 75 0.0 0.0 0.00 0.00 0.00 100
20191014102741 53 75 0.0 2.0 0.00 0.00 0.00 100
20191014102339 54 70 0.0 2.0 0.00 0.00 0.00 100
20191014101535 53 81 0.0 0.0 0.00 0.00 0.00 100
20191014101133 54 81 0.0 0.0 0.00 0.00 0.00 100
20191014100330 53 81 0.0 0.0 0.00 0.00 0.00 100
20191014095928 54 81 0.0 0.0 0.00 0.00 0.00 100
20191014095526 53 81 0.0 0.0 0.00 0.00 0.00 100
20191014094724 54 23 0.0 0.0 0.00 0.00 0.00 100
20191014094321 54 23 0.0 0.0 0.00 0.00 0.00 100
20191014093921 54 23 0.0 0.0 0.00 0.00 0.00 100
20191014093517 55 23 0.0 0.0 0.00 0.00 0.00 100
20191014093152 54 23 0.0 0.0 0.00 0.00 0.00 100
20191014093116 54 23 0.0 0.0 0.00 0.00 0.00 100
20191014092805 55 23 0.0 0.0 0.00 0.00 0.00 100
20191014092714 55 23 0.0 0.0 0.00 0.00 0.00 100
20191014092345 55 23 0.0 0.0 0.00 0.00 0.00 100
20191014092312 55 23 0.0 0.0 0.00 0.00 0.00 100
20191014091910 55 23 0.0 0.0 0.00 0.00 0.00 100
20191014091542 56 23 0.0 0.0 0.00 0.00 0.00 100
20191014091509 56 23 0.0 0.0 0.00 0.00 0.00 100
20191014090303 57 35 2.0 3.0 0.00 0.00 0.00 100
20191014085902 56 11 2.0 3.0 0.00 0.00 0.00 100
20191014085058 57 33 0.0 5.0 0.00 0.00 0.00 100
20191014084254 56 29 1.0 3.0 0.00 0.00 0.00 100
20191014083451 56 56 2.0 7.0 0.00 0.00 0.00 100
20191014083049 54 68 6.0 5.0 0.00 0.00 0.00 100
20191014082647 53 105 0.0 0.0 0.00 0.00 0.00 100
20191014082245 53 105 0.0 3.0 0.00 0.00 0.00 100
20191014081844 53 105 0.0 3.0 0.00 0.00 0.00 100
20191014080638 53 42 0.0 0.0 0.00 0.00 0.00 100
20191014075835 54 42 0.0 3.0 0.00 0.00 0.00 100
20191014075031 53 61 0.0 0.0 0.00 0.00 0.00 100
20191014074632 54 61 0.0 1.0 0.00 0.00 0.00 100
20191014074229 54 61 0.0 1.0 0.00 0.00 0.00 100
20191014073828 55 70 1.0 1.0 0.00 0.00 0.00 100
20191014073024 54 68 0.0 3.0 0.00 0.00 0.00 100
20191014072219 53 50 0.0 2.0 0.00 0.00 0.00
20191014071818 53 98 1.0 3.0 0.00 0.00 0.00
20191014071416 54 120 0.0 3.0 0.00 0.00 0.00 100
20191014071048 54 97 2.0 2.0 0.00 0.00 0.00 100
20191014071014 54 97 2.0 2.0 0.00 0.00 0.00 100
20191014070613 54 61 0.0 0.0 0.00 0.00 0.00
20191014065809 55 61 0.0 0.0 0.00 0.00 0.00
20191014065453 55 77 0.0 0.0 0.00 0.00 0.00 100
20191014065407 55 77 0.0 0.0 0.00 0.00 0.00 100
20191014065006 56 102 0.0 0.0 0.00 0.00 0.00 100
20191014064604 55 102 0.0 2.0 0.00 0.00 0.00 100
20191014064202 55 102 0.0 1.0 0.00 0.00 0.00
20191014063835 55 39 0.0 0.0 0.00 0.00 0.00
20191014063800 55 39 0.0 0.0 0.00 0.00 0.00
20191014063029 55 39 0.0 2.0 0.00 0.00 0.00
20191014062957 55 39 0.0 2.0 0.00 0.00 0.00
20191014062154 54 46 1.0 3.0 0.00 0.00 0.00
20191014061752 53 97 2.0 1.0 0.00 0.00 0.00
20191014061350 53 105 0.0 1.0 0.00 0.00 0.00
20191014060631 53 109 1.0 1.0 0.00 0.00 0.00
20191014060548 53 109 1.0 1.0 0.00 0.00 0.00
20191014060218 53 80 0.0 0.0 0.00 0.00 0.00
20191014060145 53 80 0.0 0.0 0.00 0.00 0.00
20191014054940 53 80 0.0 1.0 0.00 0.00 0.00
20191014054540 53 84 0.0 0.0 0.00 0.00 0.00
20191014054136 53 43 0.0 0.0 0.00 0.00 0.00
20191014053735 54 43 0.0 0.0 0.00 0.00 0.00
20191014053333 54 43 0.0 0.0 0.00 0.00 0.00
20191014052606 54 43 0.0 2.0 0.00 0.00 0.00
20191014052529 54 43 0.0 2.0 0.00 0.00 0.00
20191014051809 54 64 0.0 2.0 0.00 0.00 0.00
20191014051726 54 64 0.0 2.0 0.00 0.00 0.00
20191014051326 54 64 0.0 2.0 0.00 0.00 0.00
20191014050923 54 80 1.0 2.0 0.00 0.00 0.00
20191014050523 54 85 0.0 0.0 0.00 0.00 0.00